New Bern, NC

7:46 AM EDT on May 29, 2017 (GMT -0400)
Craven County Regional

Weather History for KEWN - January, 2012

Change the Weather History Date:

Tuesday, January 17, 2012

  Actual Average Record
Temperature  
Mean Temperature 57 °F 44 °F  
Max Temperature 70 °F 54 °F 78 °F (1949)
Min Temperature 44 °F 34 °F 10 °F (1977)
Degree Days  
Heating Degree Days 8 21  
Month to date heating degree days 307 357  
Since 1 July heating degree days 1138 1351  
Cooling Degree Days 0 0  
Month to date cooling degree days 0 0  
Year to date cooling degree days 0 0  
Growing Degree Days 7 (Base 50)    
Moisture  
Dew Point 48 °F    
Average Humidity 71    
Maximum Humidity 89    
Minimum Humidity 53    
Precipitation  
Precipitation T in 0.14 in 1.21 in (2011)
Month to date precipitation 1.00 2.26  
Year to date precipitation 1.00 2.26  
Snow  
Snow 0.00 in - - ()
Month to date snowfall 0.0  
Since 1 July snowfall 0.0  
Snow Depth 0.00 in    
Sea Level Pressure  
Sea Level Pressure 30.17 in    
Wind  
Wind Speed 11 mph (SW)    
Max Wind Speed 26 mph    
Max Gust Speed 39 mph    
Visibility 10 miles    
Events Rain    
T = Trace of Precipitation, MM = Missing Value Source: NWS Daily Summary

Daily Weather History Graph

Daily Weather History Graph

Search for Another Location

Airport or City:

Trip Planner

Search our weather history database for the weather conditions in past years. The results will help you decide how hot, cold, wet, or windy it might be!

Date:

Astronomy

Jan. 17, 2012 Rise Set
Actual Time 7:15 AM EST 5:21 PM EST
Civil Twilight 6:47 AM EST 5:48 PM EST
Nautical Twilight 6:16 AM EST 6:19 PM EST
Astronomical Twilight 5:46 AM EST 6:50 PM EST
Moon 1:34 AM EST (1/17) 12:12 PM EST (1/17)
Length of Visible Light 11h 00m
Length of Day
10h 05m
Waning Crescent, 35% of the Moon is Illuminated
Jan 17
Waning Crescent
Jan 23
New
Jan 30
First Quarter
Feb 7
Full
Feb 14
Last Quarter

Hourly Weather History & Observations

Time (EST) Temp. Dew Point Humidity Pressure Visibility Wind Dir Wind Speed Gust Speed Precip Events Conditions
12:54 AM 45.0 °F 37.9 °F 76% 30.38 in 10.0 mi Calm Calm - N/A   Overcast
1:54 AM 45.0 °F 39.0 °F 80% 30.35 in 10.0 mi Calm Calm - N/A   Mostly Cloudy
2:54 AM 48.0 °F 42.1 °F 80% 30.34 in 10.0 mi WSW 4.6 mph - N/A   Overcast
3:54 AM 51.1 °F 44.1 °F 77% 30.31 in 10.0 mi SSW 8.1 mph - N/A   Clear
4:54 AM 52.0 °F 45.0 °F 77% 30.30 in 10.0 mi SSW 6.9 mph - N/A   Partly Cloudy
5:54 AM 53.1 °F 46.0 °F 77% 30.29 in 10.0 mi SSW 9.2 mph - 0.00 in Rain Light Rain
6:54 AM 52.0 °F 46.9 °F 83% 30.29 in 10.0 mi SSW 6.9 mph - 0.00 in   Partly Cloudy
7:54 AM 54.0 °F 50.0 °F 86% 30.27 in 10.0 mi SSW 9.2 mph - N/A   Scattered Clouds
8:54 AM 57.0 °F 51.1 °F 81% 30.27 in 10.0 mi SSW 9.2 mph - N/A   Clear
9:54 AM 62.1 °F 52.0 °F 70% 30.26 in 10.0 mi SW 10.4 mph 17.3 mph N/A   Clear
10:54 AM 66.0 °F 51.1 °F 59% 30.23 in 10.0 mi SW 20.7 mph 32.2 mph N/A   Clear
11:54 AM 68.0 °F 51.1 °F 55% 30.19 in 10.0 mi WSW 16.1 mph 26.5 mph N/A   Scattered Clouds
12:54 PM 69.1 °F 51.1 °F 53% 30.15 in 10.0 mi SW 21.9 mph 32.2 mph N/A   Mostly Cloudy
1:54 PM 66.9 °F 51.1 °F 57% 30.13 in 10.0 mi WSW 24.2 mph 39.1 mph N/A   Mostly Cloudy
2:54 PM 66.9 °F 50.0 °F 54% 30.09 in 10.0 mi SW 13.8 mph 29.9 mph N/A   Overcast
3:54 PM 66.9 °F 50.0 °F 54% 30.07 in 10.0 mi SSW 13.8 mph 21.9 mph 0.00 in   Clear
4:54 PM 64.0 °F 50.0 °F 60% 30.05 in 10.0 mi SSW 8.1 mph - N/A   Clear
5:54 PM 61.0 °F 48.9 °F 64% 30.04 in 10.0 mi SSW 8.1 mph - N/A   Clear
6:54 PM 60.1 °F 48.9 °F 67% 30.05 in 10.0 mi SW 11.5 mph - N/A   Clear
7:54 PM 59.0 °F 50.0 °F 72% 30.03 in 10.0 mi SSW 10.4 mph - N/A   Clear
8:54 PM 59.0 °F 50.0 °F 72% 30.02 in 10.0 mi SSW 11.5 mph 20.7 mph N/A   Clear
9:54 PM 59.0 °F 50.0 °F 72% 30.01 in 10.0 mi SSW 10.4 mph - N/A   Clear
10:54 PM 59.0 °F 50.0 °F 72% 29.99 in 10.0 mi SSW 10.4 mph 20.7 mph N/A   Partly Cloudy
11:54 PM 60.1 °F 50.0 °F 69% 30.01 in 10.0 mi SW 6.9 mph - N/A   Overcast